Accueil
METAR-TAF:

METAR-TAF

Aéroports :

West Memphis, Arkansas, États-Unis

latitude: 35-08N, longitude: 090-14W, altitude: 65 m

Observation

Le bulletin a été fait il y a 1 heure et 2 minutes, à 06:53 UTC
Vent calme
Température 2°C
Humidité 100%
Pression 1021 hPa
Visibilité: 9.7 km
Ciel couvert à une hauteur de 5000 ft
pluie faible, brume

METAR: KAWM 230653Z AUTO 00000KT 6SM -RA BR OVC050 02/02 A3015 RMK AO2 SLP212 P0004 T00220017

Heure: 01:55 (07:55 UTC)


TAF: absent

Observations et prévisions météorologiques de plus de 4000 aéroports (messages METAR et TAF).

Les stations disponibles sont représentées par des disques jaunes et rouges sur la carte.

Passer la souris dessus pour voir le nom de la station.

Cliquer dessus pour voir les observations et prévisions météorologiques.

Pour changer de carte: cliquez sur les boutons verts avec une croix noire pour zoomer, sur le bouton vert avec un tiret pour effectuer un zoom arrière, ou sur les flèches vertes pour les cartes adjacentes.


METAR-TAF: